[[{"header":{"parameterUnit":"m.s-1","parameterCategory":1,"la1":30.2991,"la2":30.254,"lo1":-89.0895,"lo2":-89.0444,"dy":0.0017,"dx":0.0017,"nx":28,"ny":28,"refTime":"2026-01-05T03:00:00:Z","depth":0,"parameterNumber":2,"parameterNumberName":"U-component_of_WINDS"},"data":[0,0,0,0,0,0,0,0,0,0,0,0,0,0,0,0,0,0,0,0,0,0,0,0,0,0,0,0,0,0,0,0,0,0,0,0,0,0,0,0,0,0,0,0,0,0,0,0,0,0,0,0,0,0,0,0,0,0,-2.9238,-2.924,0,-2.935,-2.9352,-2.9353,-2.9327,-2.9325,-2.9323,-2.9321,-2.9437,-2.9442,-2.9447,0,0,0,0,0,0,0,0,0,0,0,0,0,-2.9005,-2.9009,-2.9238,-2.924,-2.9241,-2.935,-2.9352,-2.9353,-2.9327,-2.9325,-2.9322,-2.932,-2.9436,-2.9442,-2.9448,0,0,0,0,0,0,0,0,0,0,0,0,0,-2.9111,-2.9011,-2.9238,-2.9241,-2.9243,-2.935,-2.9352,-2.9354,-2.9328,-2.9325,-2.9321,-2.9318,-2.9434,-2.9441,-2.9449,-2.956,0,0,-2.9472,-2.9475,0,0,0,0,0,0,0,0,-2.9105,-2.9119,-2.9239,-2.9241,-2.9243,-2.9321,-2.9312,-2.9423,-2.9329,-2.9295,-2.932,-2.9317,-2.9401,-2.9412,-2.944,-2.9566,-2.9571,-2.9473,-2.9477,-2.9481,-2.9483,0,0,0,0,0,0,0,-2.9097,-2.9114,-2.9283,-2.9241,-2.9243,-2.9238,-2.925,-2.9333,-2.9365,-2.9298,-2.9296,-2.931,-2.9402,-2.9432,-2.9442,-2.9573,-2.9472,-2.9479,-2.9484,-2.9487,-2.9799,-2.9802,0,0,0,0,0,0,-2.9088,-2.9108,-2.9279,-2.9286,-2.9164,-2.9245,-2.9258,-2.9299,-2.9364,-2.9371,-2.9313,-2.9308,-2.9421,-2.9433,-2.9446,-2.9583,-2.9481,-2.9488,-2.9492,-2.9795,-2.9799,-2.9803,0,0,0,0,0,0,-2.9083,-2.9104,-2.9275,-2.9197,-2.9218,-2.9252,-2.9299,-2.9303,-2.9334,-2.9375,-2.9381,-2.9338,-2.9419,-2.9435,-2.9533,-2.9586,-2.9491,-2.9498,-2.9791,-2.9796,-2.9801,-2.9855,0,0,0,0,0,0,-2.9077,-2.9102,-2.9144,-2.9198,-2.9222,-2.9358,-2.9303,-2.9308,-2.9347,-2.9342,-2.94,-2.9407,-2.9418,-2.9521,-2.954,-2.9595,-2.9504,-2.9786,-2.9793,-2.98,-2.9849,-2.9862,-2.9873,0,0,0,0,0,-2.9068,-2.9154,-2.9146,-2.9167,-2.9275,-2.9361,-2.9375,-2.9385,-2.9351,-2.9394,-2.9421,-2.9405,-2.9577,-2.9531,-2.9553,-2.961,-2.9783,-2.9791,-2.9799,-2.9843,-2.9859,-2.9873,0,0,0,0,0,0,-2.9106,-2.9161,-2.9153,-2.9259,-2.9305,-2.9356,-2.9411,-2.9402,-2.9459,-2.9453,-2.9464,-2.9477,-2.9576,-2.9603,-2.9551,-2.9723,-2.9675,-2.9688,-2.9702,-2.9717,-2.9729,-2.972,-2.951,0,0,0,0,0,-2.9126,-2.919,-2.9236,-2.9325,-2.9349,-2.9376,-2.9414,-2.9418,-2.9467,-2.9487,-2.9521,-2.957,-2.9635,-2.9678,-2.974,-2.9853,-2.9866,-2.9904,-2.9916,-2.9925,-2.9936,-3.0,-3.0017,-2.9831,-2.983,-2.983,0,0,-2.9169,-2.9208,-2.9247,-2.9334,-2.937,-2.9438,-2.9393,-2.9466,-2.9516,-2.9498,-2.9592,-2.9619,-2.9674,-2.978,-2.9829,-2.9806,-2.9991,-2.9936,-2.9943,-2.9949,-3.001,-3.0028,-3.0044,-2.9836,-2.9835,-2.9834,0,0,-2.9282,-2.9317,-2.9396,-2.9434,-2.949,-2.9508,-2.9527,-2.9581,-2.9598,-2.9692,-2.968,-2.9741,-2.9853,-2.9894,-2.9929,-3.0061,-3.0048,-3.0081,-3.0144,-3.0206,-3.022,-3.0234,-3.0281,-3.0298,-3.0092,-3.0092,-3.0092,0,-2.9328,-2.9428,-2.9438,-2.9512,-2.9551,-2.9538,-2.9619,-2.9656,-2.973,-2.9758,-2.9731,-2.9873,-2.9909,-3.0025,-3.0058,-3.0086,-3.011,-3.0074,-3.0217,-3.0231,-3.0243,-3.0289,-3.0307,-3.0095,-3.0095,-3.0095,-3.0094,0,-2.9483,-2.9553,-2.961,-2.9682,-2.9728,-2.9805,-2.9828,-2.9873,-2.9874,-2.9895,-2.9993,-3.0036,-3.0108,-3.0136,-3.0137,-3.0254,-3.0238,-3.0214,-3.0166,-3.0264,-3.0308,-3.0325,-3.01,-3.0099,-3.0098,-3.0097,0,0,-2.962,-2.9698,-2.9719,-2.9752,-2.9815,-2.9869,-2.9947,-3.0017,-3.0057,-3.0109,-3.0175,-3.0272,-3.0251,-3.0292,-3.0298,-3.0352,-3.0455,-3.0323,-3.0324,-3.0346,-3.0587,-3.0604,-3.0624,-3.0448,-3.0451,-3.0454,-3.0583,0,-2.9739,-2.9875,-2.9887,-3.001,-3.0075,-3.0066,-3.0134,-3.018,-3.0203,-3.0263,-3.0289,-3.0357,-3.0324,-3.0349,-3.0402,-3.0431,-3.0504,-3.0422,-3.051,-3.0513,-3.0496,-3.0646,-3.0664,-3.0783,-3.0599,-3.0602,-3.0604,0,-2.9894,-2.9952,-3.0081,-3.0136,-3.0164,-3.0225,-3.0292,-3.0349,-3.0402,-3.0415,-3.0462,-3.0461,-3.0543,-3.0493,-3.0607,-3.0551,-3.0588,-3.0609,-3.0614,-3.0622,-3.0564,-3.0659,-3.0822,-3.084,-3.0631,-3.0629,-3.0627,0,-2.9982,-3.0092,-3.0184,-3.0213,-3.0279,-3.0323,-3.0352,-3.0403,-3.0445,-3.0504,-3.0531,-3.0599,-3.0636,-3.0689,-3.0708,-3.0669,-3.0821,-3.0772,-3.0835,-3.0835,-3.0867,-3.0865,-3.1038,-3.0891,-3.0891,-3.0891,-3.089,0,-3.0113,-3.0193,-3.0224,-3.0281,-3.0371,-3.0385,-3.0474,-3.0502,-3.0547,-3.061,-3.0606,-3.0666,-3.0687,-3.075,-3.0766,-3.0858,-3.0875,-3.0889,-3.0892,-3.0889,-3.0887,-3.0913,-3.0905,-3.0896,-3.0894,-3.0894,-3.0893,0,-3.0226,-3.025,-3.035,-3.0405,-3.0421,-3.0485,-3.0533,-3.0589,-3.0611,-3.0691,-3.0711,-3.0747,-3.0822,-3.0846,-3.0936,-3.0946,-3.1055,-3.1051,-3.1037,-3.1037,-3.1099,-3.1093,-3.1295,-3.1323,-3.1158,-3.1159,-3.116,0,-3.0307,-3.0368,-3.0431,-3.0473,-3.0504,-3.0572,-3.0615,-3.0632,-3.0678,-3.0745,-3.0793,-3.0867,-3.0927,-3.1047,-3.1082,-3.1152,-3.1149,-3.1216,-3.116,-3.1156,-3.1151,-3.1147,-3.1154,-3.1226,-3.1227,-3.1229,-3.123,0,-3.045,-3.0459,-3.0521,-3.0589,-3.0641,-3.0695,-3.0747,-3.0781,-3.0807,-3.0859,-3.0935,-3.0982,-3.1075,-3.1149,-3.122,-3.1252,-3.1246,-3.1248,-3.1266,-3.1263,-3.1253,-3.126,-3.1065,-3.1242,-3.1241,-3.124,-3.124,-3.1239,-3.055,-3.0604,-3.0657,-3.0727,-3.0769,-3.0818,-3.0873,-3.0904,-3.0967,-3.1044,-3.1051,-3.1134,-3.1189,-3.1284,-3.132,-3.1386,-3.1367,-3.1394,-3.14,-3.1407,-3.1412,-3.1243,-3.1399,-3.1399,-3.1399,-3.1398,-3.1398,0,-3.0692,-3.0727,-3.0791,-3.0864,-3.092,-3.091,-3.0967,-3.1015,-3.1088,-3.1139,-3.1199,-3.1288,-3.136,-3.1402,-3.1475,-3.152,-3.1519,-3.1539,-3.1535,-3.1543,-3.1424,-3.1401,-3.1538,-3.1538,-3.1538,-3.1538,-3.1538,-3.1538,-3.0773,-3.0865,-3.0882,-3.0996,-3.103,-3.111,-3.1145,-3.1191,-3.1232,-3.1331,-3.1392,-3.1418,-3.1466,-3.1543,-3.161,-3.1621,-3.1648,-3.167,-3.1678,-3.1566,-3.1551,-3.1538,-3.1516,-3.1675,-3.1675,-3.1792,-3.1793,-3.1794]},{"header":{"parameterUnit":"m.s-1","parameterCategory":1,"la1":30.2991,"la2":30.254,"lo1":-89.0895,"lo2":-89.0444,"dy":0.0017,"dx":0.0017,"nx":28,"ny":28,"refTime":"2026-01-05T03:00:00:Z","depth":0,"parameterNumber":3,"parameterNumberName":"V-component_of_WINDS"},"data":[0,0,0,0,0,0,0,0,0,0,0,0,0,0,0,0,0,0,0,0,0,0,0,0,0,0,0,0,0,0,0,0,0,0,0,0,0,0,0,0,0,0,0,0,0,0,0,0,0,0,0,0,0,0,0,0,0,0,1.5509,1.551,0,1.556,1.556,1.5561,1.5581,1.5581,1.5581,1.5581,1.563,1.5632,1.5633,0,0,0,0,0,0,0,0,0,0,0,0,0,1.543,1.5432,1.5509,1.551,1.5511,1.556,1.556,1.5561,1.5581,1.5581,1.5581,1.5581,1.563,1.5631,1.5633,0,0,0,0,0,0,0,0,0,0,0,0,0,1.5471,1.5432,1.5509,1.5527,1.5529,1.556,1.556,1.5561,1.5581,1.5581,1.5581,1.5581,1.5629,1.5631,1.5633,1.565,0,0,1.564,1.5641,0,0,0,0,0,0,0,0,1.5469,1.5474,1.5523,1.5526,1.5528,1.5564,1.5551,1.5591,1.5581,1.5561,1.5581,1.5581,1.5608,1.5612,1.5622,1.5652,1.5654,1.564,1.5641,1.5642,1.5643,0,0,0,0,0,0,0,1.5466,1.5472,1.5529,1.5524,1.5527,1.5532,1.5538,1.5558,1.5585,1.5563,1.5565,1.557,1.5609,1.562,1.5623,1.5655,1.564,1.5642,1.5643,1.5644,1.5705,1.5705,0,0,0,0,0,0,1.546,1.5469,1.5528,1.5531,1.5497,1.5533,1.554,1.5553,1.5585,1.559,1.5571,1.5571,1.5616,1.5621,1.5625,1.5648,1.5642,1.5644,1.5645,1.5704,1.5705,1.5705,0,0,0,0,0,0,1.5459,1.5465,1.5526,1.5501,1.5509,1.5535,1.5549,1.5554,1.5564,1.5591,1.5595,1.5576,1.5616,1.5622,1.5644,1.565,1.5645,1.5647,1.5704,1.5704,1.5705,1.5694,0,0,0,0,0,0,1.5456,1.5465,1.5471,1.5501,1.551,1.5544,1.555,1.5555,1.5568,1.5569,1.5597,1.5602,1.5616,1.5641,1.5647,1.5653,1.5649,1.5703,1.5704,1.5705,1.5694,1.5694,1.5694,0,0,0,0,0,1.5453,1.5465,1.5471,1.5478,1.5519,1.5544,1.555,1.5567,1.5568,1.5575,1.5593,1.5601,1.5649,1.5643,1.5649,1.5657,1.5703,1.5704,1.5705,1.5694,1.5694,1.5694,0,0,0,0,0,0,1.5433,1.5469,1.5476,1.5498,1.5518,1.5548,1.5557,1.5566,1.5586,1.5587,1.5607,1.5613,1.5634,1.5648,1.5641,1.5676,1.5677,1.5679,1.5666,1.5667,1.5667,1.5663,1.5651,0,0,0,0,0,1.5432,1.545,1.548,1.5496,1.5506,1.553,1.5542,1.5554,1.5575,1.5584,1.5603,1.5623,1.5643,1.5655,1.5675,1.5696,1.5703,1.5704,1.5704,1.5704,1.5706,1.572,1.5721,1.5707,1.5707,1.5707,0,0,1.5428,1.545,1.5459,1.5493,1.551,1.5529,1.5537,1.5556,1.557,1.5586,1.5609,1.5624,1.5648,1.5671,1.5682,1.5683,1.5712,1.5705,1.5705,1.5707,1.5721,1.5722,1.5723,1.5708,1.5708,1.5708,0,0,1.5431,1.5449,1.5465,1.5483,1.551,1.5526,1.553,1.5559,1.557,1.5594,1.5607,1.5625,1.5658,1.5675,1.5689,1.5702,1.571,1.5708,1.5708,1.5721,1.5723,1.5724,1.573,1.5731,1.5709,1.5709,1.5709,0,1.5422,1.5452,1.5472,1.5491,1.5506,1.5524,1.5541,1.5557,1.5588,1.5598,1.5599,1.5644,1.5661,1.5689,1.5692,1.5702,1.5708,1.5704,1.5721,1.5722,1.5723,1.5729,1.5731,1.5708,1.5708,1.5709,1.5709,0,1.5441,1.5461,1.5471,1.5503,1.5519,1.5537,1.5561,1.5574,1.5586,1.5602,1.5627,1.5649,1.5675,1.5682,1.5693,1.5712,1.5713,1.5717,1.5718,1.5724,1.573,1.5732,1.5708,1.5708,1.5708,1.5708,0,0,1.543,1.5476,1.5479,1.5495,1.5527,1.5543,1.5563,1.5589,1.5601,1.5623,1.5641,1.567,1.5676,1.5691,1.5704,1.5716,1.5727,1.5719,1.572,1.572,1.5752,1.5748,1.575,1.5733,1.5733,1.5734,1.575,0,1.5438,1.5475,1.5495,1.5523,1.5543,1.5562,1.5579,1.5601,1.5618,1.5637,1.5655,1.5676,1.5681,1.5691,1.5703,1.5723,1.5733,1.5722,1.575,1.5751,1.5744,1.5753,1.5749,1.5763,1.5752,1.5753,1.5753,0,1.5451,1.5475,1.5506,1.5539,1.5548,1.5563,1.559,1.5609,1.5634,1.5646,1.5664,1.5678,1.57,1.5701,1.5732,1.5724,1.5737,1.5748,1.5749,1.5753,1.5752,1.5758,1.5768,1.577,1.5757,1.5756,1.5756,0,1.5442,1.5482,1.5506,1.5519,1.5557,1.5568,1.5584,1.561,1.5625,1.5649,1.566,1.5685,1.5699,1.5719,1.574,1.5738,1.577,1.5771,1.578,1.578,1.5786,1.5785,1.5799,1.5793,1.5793,1.5793,1.5793,0,1.5449,1.5467,1.5503,1.5517,1.5539,1.5563,1.5584,1.5601,1.5625,1.5644,1.5661,1.5679,1.5705,1.5726,1.5742,1.5767,1.5772,1.5783,1.5787,1.5781,1.578,1.579,1.579,1.5794,1.5794,1.5794,1.5794,0,1.5442,1.5466,1.5494,1.5529,1.5538,1.5553,1.5583,1.5599,1.5617,1.5641,1.5648,1.5677,1.5703,1.5726,1.5759,1.577,1.5796,1.5801,1.5788,1.579,1.5798,1.5798,1.5819,1.5824,1.5814,1.5814,1.5814,0,1.5444,1.5459,1.5497,1.5512,1.5528,1.5551,1.5568,1.5593,1.5609,1.5642,1.5654,1.5681,1.5705,1.5745,1.5769,1.5796,1.5802,1.5808,1.5805,1.58,1.5803,1.5802,1.5804,1.5807,1.5807,1.5807,1.5807,0,1.5447,1.5459,1.5483,1.5512,1.5532,1.5555,1.5579,1.559,1.5619,1.5637,1.5665,1.5683,1.5719,1.5747,1.5777,1.5794,1.5806,1.5808,1.5812,1.5806,1.5798,1.5804,1.5788,1.5807,1.5807,1.5807,1.5807,1.5807,1.5445,1.546,1.549,1.5517,1.5538,1.5561,1.5578,1.56,1.5624,1.5656,1.5669,1.5697,1.5726,1.5767,1.5784,1.5807,1.5809,1.5814,1.5816,1.5817,1.5816,1.5795,1.5813,1.5813,1.5813,1.5813,1.5813,0,1.5449,1.547,1.5495,1.5529,1.5551,1.5562,1.559,1.5607,1.5632,1.5658,1.5681,1.5714,1.5742,1.5769,1.5798,1.5812,1.5818,1.5819,1.5818,1.5822,1.5812,1.5807,1.5813,1.5813,1.5813,1.5813,1.5813,1.5813,1.5454,1.5481,1.5497,1.5536,1.5556,1.5585,1.5601,1.5622,1.5644,1.568,1.5704,1.5722,1.5749,1.5781,1.5807,1.5814,1.5825,1.5824,1.5833,1.5823,1.5822,1.5822,1.5817,1.5826,1.5826,1.5841,1.5841,1.5841]}]]